Regional Weather Roundup
Issued by NWS

Home | Current Version | Previous Version | Text Only | Print | Product List | Glossary Off
Versions: 1 2 3 4 5 6 7 8 9 10 11 12 13 14 15 16 17 18 19 20 21 22 23 24 25 26 27 28 29 30 31 32 33 34 35 36 37 38 39 40 41 42 43 44 45 46 47 48 49 50

000
ASUS43 KMKX 230048
RWRWI

WISCONSIN REGIONAL WEATHER ROUNDUP
NATIONAL WEATHER SERVICE MILWAUKEE/SULLIVAN WI
800 PM CDT FRI MAY 22 2015

NOTE: "FAIR" INDICATES FEW OR NO CLOUDS BELOW 12,000 FEET WITH NO
SIGNIFICANT WEATHER AND/OR OBSTRUCTIONS TO VISIBILITY.

WIZ001-002-006>008-014>016-023>028-230200-
NORTHWEST WISCONSIN

CITY           SKY/WX    TMP DP  RH WIND       PRES   REMARKS
SUPERIOR ARPT  CLEAR     49  37  63 NE6       30.17S
ASHLAND        PTCLDY    69  32  25 VRB5      30.17F
HAYWARD        CLEAR     71  29  21 CALM      30.18F
SIREN          CLEAR     70  33  24 SW7       30.18S
CUMBERLAND     CLEAR     68  30  24 S3        30.20R
RICE LAKE      CLEAR     70  32  24 S5        30.21R
CHETEK         CLEAR     69  36  30 S3        30.20R
LADYSMITH      CLEAR     69  37  31 S6        30.21S
EAU CLAIRE     PTCLDY    71  31  22 CALM      30.19S
MENOMONIE      PTCLDY    71  34  25 SW6       30.19S
NEW RICHMOND   CLEAR     71  29  21 NW5       30.19S
OSCEOLA          N/A     70  38  31 CALM      30.21S HAZE
$$

WIZ003>005-009-010-017-018-230200-
NORTH CENTRAL WISCONSIN

CITY           SKY/WX    TMP DP  RH WIND       PRES   REMARKS
MANITOWISH WTR CLEAR     64  27  24 N5        30.21S
ARBOR VITAE    CLEAR     65  23  20 N5        30.21S
WOODRUFF       CLEAR     65  23  20 N5        30.21S
RHINELANDER    CLEAR     65  26  23 NE3       30.21S
EAGLE RIVER    CLEAR     65  19  17 N8        30.21S
LAND O LAKES   CLEAR     64  18  16 NW3       30.22S
PHILLIPS       CLEAR     67  31  26 NW3       30.19S
TOMAHAWK       CLEAR     67  26  21 NW5       30.20S
MEDFORD        CLEAR     66  33  29 W3        30.21R
MERRILL        CLEAR     69  32  25 CALM      30.20F
$$

WIZ029-030-035-036-043>047-230200-
CENTRAL WISCONSIN

CITY           SKY/WX    TMP DP  RH WIND       PRES   REMARKS
WAUSAU         CLEAR     68  32  26 W5        30.18F
MOSINEE        CLEAR     64  37  36 SW8       30.22S
MARSHFIELD     CLEAR     69  32  25 N3        30.20S
STEVENS POINT  CLEAR     66  32  28 SW3       30.21S
WAUPACA        CLEAR     71  31  22 W6        30.21R
WAUTOMA        PTCLDY    72  29  20 CALM      30.21R
WISC RAPIDS    CLEAR     70  29  21 NE3       30.21S
CAMP DOUGLAS   MOCLDY    70  37  29 CALM      30.19S
$$

WIZ011>013-019>022-031-037>040-048>050-230200-
NORTHEAST WISCONSIN

CITY           SKY/WX    TMP DP  RH WIND       PRES   REMARKS
ANTIGO         CLEAR     66  31  27 N6        30.20F
SHAWANO        CLEAR     70  30  22 SW3       30.19F
OCONTO         CLEAR     57  33  39 SE9       30.23R
STURGEON BAY   CLEAR     52  21  30 SE14      30.27S
GREEN BAY      CLEAR     61  31  32 SE15      30.22S
MANITOWOC      CLEAR     51  28  41 S10       30.26F
APPLETON       PTCLDY    64  36  34 SE6       30.21F
CLINTONVILLE   CLEAR     70  28  21 CALM      30.19F
OSHKOSH        PTCLDY    66  38  35 E9        30.21S
$$

WIZ032>034-041-042-053>061-230200-
SOUTHWEST WISCONSIN

CITY           SKY/WX    TMP DP  RH WIND       PRES   REMARKS
LA CROSSE      MOCLDY    74  34  23 CALM      30.18S
SPARTA         MOCLDY    70  34  26 W3        30.20S
VIROQUA        MOCLDY    69  32  25 CALM      30.21S
BOSCOBEL       CLOUDY    73  39  29 N3        30.19S
PRAIRIE DU CHI CLOUDY    72  35  26 CALM      30.18S
PLATTEVILLE    CLOUDY    71  37  29 W5        30.21R
$$

WIZ056-057-062-063-064-067-068-230200-
SOUTH CENTRAL WISCONSIN

CITY           SKY/WX    TMP DP  RH WIND       PRES   REMARKS
REEDSBURG      MOCLDY    69  37  31 NE3       30.19S
BARABOO/DELLS  MOCLDY    69  33  26 CALM      30.21R
LONE ROCK      MOCLDY    72  34  24 CALM      30.19S
MINERAL POINT  CLOUDY    70  34  26 SW3       30.21S
MADISON        MOCLDY    69  39  33 SE3       30.21R
MIDDLETON      MOCLDY    72  31  22 E5        30.21S
WATERTOWN      MOCLDY    65  40  39 SE10      30.22R
MONROE         CLOUDY    70  36  28 CALM      30.21S
JANESVILLE     CLEAR     72  32  23 CALM      30.20S
$$

WIZ051-052-058>065-066-070>072-230200-
SOUTHEAST WISCONSIN

CITY           SKY/WX    TMP DP  RH WIND       PRES   REMARKS
MILWAUKEE      MOCLDY    50  28  42 SE7       30.28R
WAUKESHA       MOCLDY    57  30  35 E10       30.26R
MILWAUKEE/TIMM CLEAR     54  18  24 SE7       30.28R
RACINE         MOCLDY    52  27  38 SE7       30.29R
BURLINGTON     MOCLDY    57  29  34 E9        30.25S
KENOSHA        MOCLDY    54  27  35 E10       30.27R
FOND DU LAC    PTCLDY    62  33  33 SE16      30.22R
SHEBOYGAN      CLEAR     53  24  32 SE7       30.26F
WEST BEND      PTCLDY    54  23  30 SE7       30.26R
JUNEAU         MOCLDY    67  37  33 E12       30.23R HAZE
$$

LSZ147-162-230200-
LAKE SUPERIOR

STATION/POSITION TIME  TEMP    WIND        PRES    WAVE
                       AIR SEA DIR/SP/G            HT/PER
                 (UTC) (F)     (DEG/KT/KT) (MB)    (FT/S)
W MID LAKE BUOY  2350   41 37  120/  8/ 10   N/A     0
DEVILS ISLAND    0000   45      70/  5/  6   N/A
PORT WING        2300   45      20/  7/  7   N/A
SAXON HARBOR     2300   62        CALM       N/A
$$

LMZ867-665-643>646-230200-
LAKE MICHIGAN

STATION/POSITION TIME  TEMP    WIND        PRES    WAVE
                       AIR SEA DIR/SP/G            HT/PER
                 (UTC) (F)     (DEG/KT/KT) (MB)    (FT/S)
CHAMBERS ISLAND  2300   55     140/  6/ 15   N/A
N MID LAKE BUOY  2350   41 36  180/  6/  8   N/A     0
SISTER BAY       2132   54     160/ 12/ 16   N/A
KEWAUNEE LAKESHO 0000   47     170/ 10/ 11   N/A
SHEBOYGAN LAKESH 0000          160/  6/  7   N/A
PORT WASHINGTON  2340   48     170/  4/  5   N/A
ATWATER BUOY     0000   46 45  150/  2/  4   N/A
MILWAUKEE LAKESH 2300   46      70/  4/  5   N/A
S MID LAKE BUOY  2350   42 38   70/  6/  6   N/A     0
KENOSHA   LAKESH 2200   51      90/  4/  7   N/A
$$

TC  - TEMPERATURE IN CELSIUS
VSB - VISIBILITY IN STATUTE MILES
WCI - WIND CHILL INDEX
HX  - HEAT INDEX



USA.gov is the U.S. government's official web portal to all federal, state and local government web resources and services.